Location: Baix
(44.7118°N, 4.7648°E)
Time: 01:30:25
(UTC+00:00)

Cosmos 2219 Rocket - Pass Details

Date: 07 August 2020
Orbit: 826 x 848 km, 71.0° (Epoch: 27 September)

Event Time Altitude Azimuth Distance (km) Brightness Sun altitude
Rises 00:03:11 0° 335° (NNW) 3,414 6.2 -28.8°
Reaches altitude 10° 00:05:39 10° 336° (NNW) 2,477 5.4 -28.8°
Enters shadow 00:11:15 80° 45° (NE) 865 2.2 -28.7°
